CANX-2

Last updated on Sun Apr 12 2026 00:03:55 GMT+0000 (Coordinated Universal Time)

1 32790U 08021H 26101.41909552 .00004017 00000+0 28631-3 0 9991 2 32790 97.8600 79.9426 0008935 270.1753 89.8449 15.05149992974760
UTC large
Height (km)
Speed (km/s)
/
Latitude / Longitude
Inclination (degrees)
Orbital Period (minutes)
Azimuth
Elevation
Range (km)
Doppler Factor

Next 0 passes for location: London (51.5072 / 0.1276)

Sorry there are no passes over London.
CANX-2